Location: Chandrammap?lem
(16.9200°N, 81.0051°E)
Time: 05:40:35
(UTC+00:00)

CZ-3A R/B - Pass Details

Date: 04 August 2024
Orbit: 420 x 34799 km, 24.7° (Epoch: 06 September)

Event Time Altitude Azimuth Distance (km) Brightness Sun altitude
Rises 08:03:35 0° 249° (WSW) 12,544 8.9 70.5°
Reaches altitude 10° 08:11:18 10° 250° (WSW) 13,513 9.3 68.7°
Maximum altitude 09:55:46 43° 266° (W) 28,324 13.0 43.8°
Enters shadow 17:25:26 45° 241° (WSW) 3,915 5.8 -51.2°
